Location: Arborea
(39.7744°N, 8.5819°E)
Time: 05:52:11
(UTC+00:00)

Cosmos 2322 - Pass Details

Date: 30 May 2022
Orbit: 840 x 855 km, 71.0° (Epoch: 03 July)

Event Time Altitude Azimuth Distance (km) Brightness Sun altitude
Exits shadow 23:12:56 20° 265° (W) 1,884 5.4 -28.3°
Maximum altitude 23:15:31 27° 304° (NW) 1,580 5.4 -28.3°
Drops below altitude 10° 23:20:20 10° 2° (N) 2,494 7.1 -28.3°
Sets 23:23:12 0° 14° (NNE) 3,433 8.0 -28.3°
